Fort Pierce, FL

2:42 PM EST on February 23, 2017 (GMT -0500)
Saint Lucie County International

Weather History for KFPR - February, 2014

Change the Weather History Date:

Sunday, February 2, 2014

  Actual Average Record
Temperature  
Mean Temperature 72 °F -  
Max Temperature 82 °F 76 °F 87 °F (1985)
Min Temperature 62 °F 54 °F 34 °F (1980)
Cooling Degree Days 7    
Growing Degree Days 22 (Base 50)    
Moisture  
Dew Point 63 °F    
Average Humidity 88    
Maximum Humidity 100    
Minimum Humidity 51    
Precipitation  
Precipitation 0.01 in - - ()
Sea Level Pressure  
Sea Level Pressure 30.12 in    
Wind  
Wind Speed 2 mph (SE)    
Max Wind Speed 16 mph    
Max Gust Speed -    
Visibility 4 miles    
Events Fog    
Averages and records for this station are not official NWS values.
T = Trace of Precipitation, MM = Missing Value Source: NWS Daily Summary

Daily Weather History Graph

Daily Weather History Graph

Search for Another Location

Airport or City:

Trip Planner

Search our weather history database for the weather conditions in past years. The results will help you decide how hot, cold, wet, or windy it might be!

Date:

Astronomy

Feb. 02, 2014 Rise Set
Actual Time 7:07 AM EST 6:03 PM EST
Civil Twilight 6:42 AM EST 6:27 PM EST
Nautical Twilight 6:14 AM EST 6:55 PM EST
Astronomical Twilight 5:47 AM EST 7:23 PM EST
Moon 8:54 AM EST (2/2) 9:21 PM EST (2/2)
Length of Visible Light 11h 44m
Length of Day
10h 56m
Waxing Crescent, 11% of the Moon is Illuminated
Feb 2
Waxing Crescent
Feb 6
First Quarter
Feb 14
Full
Feb 22
Last Quarter
Mar 1
New

Hourly Weather History & Observations

Time (EST) Temp. Heat Index Dew Point Humidity Pressure Visibility Wind Dir Wind Speed Gust Speed Precip Events Conditions
12:00 AM 66.2 °F - 64.4 °F 94% 30.14 in 0.5 mi Calm Calm - N/A Fog Fog
12:10 AM 64.4 °F - 64.4 °F 100% 30.14 in 0.2 mi Calm Calm - N/A Fog Fog
12:35 AM 64.4 °F - 62.6 °F 94% 30.13 in 0.5 mi Calm Calm - N/A Fog Fog
12:43 AM 64.4 °F - 62.6 °F 94% 30.13 in 1.0 mi Calm Calm - N/A   Mist
12:53 AM 64.9 °F - 63.0 °F 93% 30.13 in 2.5 mi Calm Calm - N/A   Overcast
12:59 AM 64.4 °F - 62.6 °F 94% 30.13 in 0.8 mi Calm Calm - N/A   Mist
1:03 AM 64.4 °F - 62.6 °F 94% 30.13 in 0.2 mi Calm Calm - N/A Fog Fog
1:53 AM 64.0 °F - 62.1 °F 93% 30.12 in 0.2 mi Calm Calm - N/A Fog Fog
2:45 AM 62.6 °F - 60.8 °F 94% 30.11 in 0.5 mi Calm Calm - N/A Fog Fog
2:53 AM 62.1 °F - 60.1 °F 93% 30.11 in 0.2 mi Calm Calm - N/A Fog Fog
3:06 AM 62.6 °F - 62.6 °F 100% 30.11 in 0.5 mi Calm Calm - N/A Fog Fog
3:13 AM 62.6 °F - 62.6 °F 100% 30.11 in 0.2 mi Calm Calm - N/A Fog Fog
3:23 AM 62.6 °F - 60.8 °F 94% 30.11 in 0.5 mi Calm Calm - N/A Fog Fog
3:25 AM 62.6 °F - 60.8 °F 94% 30.11 in 0.8 mi Calm Calm - N/A   Mist
3:33 AM 62.6 °F - 60.8 °F 94% 30.11 in 0.5 mi Calm Calm - N/A Fog Fog
3:42 AM 62.6 °F - 60.8 °F 94% 30.11 in 0.2 mi Calm Calm - N/A Fog Fog
3:53 AM 62.1 °F - 61.0 °F 96% 30.11 in 0.2 mi Calm Calm - N/A Fog Fog
4:20 AM 62.6 °F - 60.8 °F 94% 30.12 in 0.5 mi NE 4.6 mph - N/A Fog Fog
4:24 AM 62.6 °F - 60.8 °F 94% 30.12 in 0.2 mi Calm Calm - N/A Fog Fog
4:38 AM 62.6 °F - 62.6 °F 100% 30.11 in 0.2 mi Calm Calm - N/A Fog Fog
4:53 AM 63.0 °F - 62.1 °F 97% 30.11 in 0.2 mi Calm Calm - N/A Fog Fog
5:00 AM 64.4 °F - 62.6 °F 94% 30.11 in 0.5 mi Calm Calm - N/A Fog Fog
5:06 AM 64.4 °F - 62.6 °F 94% 30.11 in 0.2 mi Calm Calm - N/A Fog Fog
5:17 AM 62.6 °F - 62.6 °F 100% 30.12 in 0.2 mi Calm Calm - N/A Fog Fog
5:24 AM 62.6 °F - 60.8 °F 94% 30.11 in 0.5 mi Calm Calm - N/A Fog Fog
5:53 AM 62.1 °F - 60.1 °F 93% 30.12 in 0.5 mi Calm Calm - N/A Fog Fog
6:11 AM 62.6 °F - 60.8 °F 94% 30.13 in 1.0 mi Calm Calm - N/A   Mist
6:16 AM 62.6 °F - 60.8 °F 94% 30.13 in 3.0 mi Calm Calm - N/A   Overcast
6:26 AM 62.6 °F - 60.8 °F 94% 30.13 in 0.8 mi Calm Calm - N/A   Overcast
6:31 AM 62.6 °F - 60.8 °F 94% 30.13 in 0.2 mi Calm Calm - N/A Fog Fog
6:48 AM 62.6 °F - 60.8 °F 94% 30.14 in 0.5 mi Calm Calm - N/A Fog Fog
6:53 AM 62.1 °F - 60.1 °F 93% 30.14 in 1.0 mi Calm Calm - N/A   Overcast
7:03 AM 62.6 °F - 60.8 °F 94% 30.14 in 3.0 mi Calm Calm - N/A   Mostly Cloudy
7:53 AM 64.0 °F - 62.1 °F 93% 30.14 in 10.0 mi Calm Calm - N/A   Scattered Clouds
8:53 AM 72.0 °F - 70.0 °F 93% 30.16 in 8.0 mi Calm Calm - N/A   Clear
9:53 AM 78.1 °F - 69.1 °F 74% 30.17 in 10.0 mi South 6.9 mph - N/A   Clear
10:53 AM 80.1 °F 82.1 °F 66.0 °F 62% 30.16 in 10.0 mi SE 12.7 mph - N/A   Partly Cloudy
11:53 AM 82.0 °F 83.0 °F 62.1 °F 51% 30.14 in 10.0 mi SE 13.8 mph - N/A   Partly Cloudy
12:53 PM 81.0 °F 82.2 °F 63.0 °F 54% 30.11 in 10.0 mi ESE 15.0 mph - N/A   Clear
1:53 PM 81.0 °F 82.7 °F 64.9 °F 58% 30.09 in 10.0 mi ESE 15.0 mph - N/A   Partly Cloudy
2:53 PM 80.1 °F 82.1 °F 66.0 °F 62% 30.07 in 10.0 mi ESE 16.1 mph - N/A   Clear
3:53 PM 80.1 °F 82.3 °F 66.9 °F 64% 30.07 in 10.0 mi ESE 13.8 mph - N/A   Clear
4:53 PM 79.0 °F - 69.1 °F 72% 30.07 in 10.0 mi ESE 11.5 mph - N/A   Clear
5:53 PM 75.9 °F - 66.9 °F 74% 30.09 in 10.0 mi SE 9.2 mph - N/A   Clear
6:53 PM 72.0 °F - 68.0 °F 87% 30.09 in 10.0 mi ESE 3.5 mph - N/A   Clear
7:53 PM 68.0 °F - 64.9 °F 90% 30.10 in 8.0 mi Calm Calm - N/A   Clear
8:53 PM 71.1 °F - 68.0 °F 90% 30.10 in 9.0 mi SE 6.9 mph - N/A   Clear
9:53 PM 73.9 °F - 69.1 °F 85% 30.10 in 10.0 mi SSE 5.8 mph - N/A   Overcast
10:53 PM 72.0 °F - 68.0 °F 87% 30.10 in 9.0 mi SE 6.9 mph - 0.01 in   Clear
11:53 PM 72.0 °F - 69.1 °F 91% 30.09 in 9.0 mi SE 6.9 mph - N/A   Clear